Temp_Advection
nan nan nan nan nan nan nan nan nan nan nan nan nan nan nan nan nan nan nan nan nan nan nan nan nan nan nan nan nan nan nan nan nan nan nan nan nan nan nan nan nan nan nan nan nan
nan -0 -0 -0 -0 0 0 -0 -0 -0 -0 -0 -0 0 0 0 0 -1 -1 0 0 0 -0 -0 -0 -0 -0 -0 0 0 -0 -1 -0 -0 -0 -1 -0 -0 0 -0 -0 -0 -0 0 nan
nan -0 -0 -0 -0 -0 -0 -0 -0 0 -0 -0 0 0 0 0 -0 -1 -1 0 1 0 -0 -0 0 -0 -0 -0 -0 0 -0 -0 -0 -1 -0 -0 -0 0 0 -0 -0 -0 -0 -0 nan
nan -0 -0 -0 -0 0 0 -0 -0 -0 -0 0 -0 -0 0 0 -0 0 -0 0 0 0 -0 -0 0 -0 -0 -0 -0 -0 -1 -1 -1 -1 -0 -0 -0 0 0 -0 -0 -0 -0 -0 nan
nan -0 -0 0 -0 -0 0 0 -0 -0 0 0 0 0 0 -0 -1 0 -0 -0 -0 -0 -0 0 -0 -0 -0 -0 -0 -0 -1 -1 -1 -0 -1 -0 0 -0 -0 -0 -0 -0 -0 -0 nan
nan 0 -0 -0 0 0 0 0 -0 -0 -0 -0 0 0 0 -1 -1 -0 0 0 -0 -0 0 -0 -0 -0 -0 -0 -0 -1 -0 -1 -1 -0 -0 0 -0 -0 -0 -0 -0 -0 -0 -0 nan
nan 0 0 -0 0 0 0 0 -0 -0 -0 -0 0 0 -0 -1 -0 0 0 -0 0 0 -0 -0 -0 -0 -0 -0 -0 -0 -0 -1 -1 -0 -0 -0 0 -0 -1 -0 -0 -0 -0 -0 nan
nan 0 0 -0 0 0 0 0 0 0 0 -0 0 0 -0 -1 -0 -0 0 -0 0 -0 -0 -0 0 -0 -0 -0 -0 -0 -0 -0 -0 -0 -0 0 0 -1 -2 -0 0 -0 0 0 nan
nan 0 0 0 0 0 0 0 0 -0 0 0 0 0 -0 -0 -0 -0 0 0 0 -0 -0 -0 -0 0 0 0 0 -0 -0 -0 -1 -0 -0 0 0 -0 -1 0 0 -0 -0 0 nan
nan 0 0 0 0 0 0 0 0 0 -0 -0 -0 -0 -1 -0 -0 0 0 0 0 0 0 0 1 0 0 0 -0 -0 -0 -0 -0 -0 -0 -0 -0 -1 -1 1 -0 -0 0 1 nan
nan 0 0 0 0 0 0 0 0 0 -0 -0 -0 -0 -0 0 0 0 0 0 -0 0 0 1 0 -0 -0 -0 -0 -0 -0 -1 -1 -0 0 -0 -0 -1 -0 0 -0 -1 0 1 nan
nan 0 0 0 0 0 0 0 -0 -0 -0 -0 0 -0 -0 0 -0 -0 -0 -0 0 1 0 0 -1 -1 -0 -0 0 0 -0 -1 -1 -1 -0 -0 -1 -0 -0 -0 -1 -1 1 0 nan
nan 0 0 0 0 0 0 -0 -0 0 -0 -0 0 0 -0 0 0 -0 -0 -0 0 0 -0 -0 -0 -0 0 0 0 0 -0 -1 -1 -1 -1 -0 -1 -1 -1 -0 -0 -0 2 1 nan
nan 0 0 0 -0 0 -0 -0 0 0 -0 -0 0 -0 0 0 -0 0 -0 0 0 -0 -0 -0 -1 0 0 -0 -0 -0 -1 -0 -0 -0 -0 -0 -0 -1 -0 0 0 1 2 1 nan
nan 0 0 0 -0 0 -0 0 0 -0 -0 -0 -0 0 -0 0 0 -0 0 1 0 0 0 -0 0 0 -0 -1 -0 -1 -0 -0 0 0 -0 -0 -0 -0 -0 -0 0 1 1 1 nan
nan 0 0 0 0 0 0 -0 0 -0 -0 -0 -0 -0 -0 -0 -0 0 0 1 0 0 0 -0 0 0 -0 -0 0 0 -0 -0 -0 -0 -0 -0 -0 -0 -0 -0 0 -0 1 1 nan
nan 0 -0 0 0 0 0 0 -0 -0 -0 -0 -0 -0 -0 -0 0 0 0 0 0 0 0 0 0 -0 0 0 0 0 0 -0 -0 -0 -1 -0 0 -2 -1 -0 -0 -1 -0 0 nan
nan -0 0 1 0 0 -0 -0 -0 -0 0 -0 0 0 0 0 0 0 0 -0 -0 0 0 0 -0 -0 -0 -0 -0 -0 0 -0 -0 -1 -0 0 -1 -1 -0 0 1 -0 0 1 nan
nan 0 1 0 0 0 0 -0 -0 -0 -0 -0 -0 0 -0 0 0 0 0 -0 -0 -1 -0 -0 -0 -0 -0 -0 -0 -0 -0 -0 -0 -0 -0 0 -1 -0 -0 -0 1 0 0 1 nan
nan 0 0 -0 0 0 0 -0 -0 0 -0 0 -0 -0 -0 0 0 0 -0 -0 -0 -1 -1 -0 -0 0 0 0 -0 -0 -0 0 -0 -0 -0 -0 -0 0 0 -0 0 -0 -0 -0 nan
nan 0 0 1 -0 -0 -0 -0 -0 0 -0 -0 0 0 0 -0 -0 -0 -0 -0 -1 -0 -0 0 0 0 0 -0 -0 -0 -0 -0 -0 -0 -0 0 -0 0 0 0 -0 -0 -0 -0 nan
nan 0 0 1 -0 -0 -0 -0 0 0 0 0 0 -0 -0 -1 -0 -0 -1 -0 -0 -0 1 0 -0 -0 -1 -1 -1 -1 -0 -0 -0 0 -0 0 -0 -0 0 0 -0 -0 -0 -0 nan
nan -0 -0 -0 -0 -0 -0 -0 0 0 0 -0 -0 -1 -0 -0 -0 -1 -0 0 -1 -0 0 0 -0 -0 -0 -0 -0 -0 -0 -0 0 -0 -1 0 -0 0 -0 0 0 -0 -0 -0 nan
nan -0 -0 -0 0 -0 -0 -0 0 0 -0 -0 -0 -0 -0 -0 -1 -0 -0 -0 -1 -1 -0 0 -0 -0 -0 -0 -0 -0 -0 0 1 -1 -0 -0 0 0 -0 -0 0 0 0 -0 nan
nan -0 -0 -0 -0 -0 -0 -0 -0 -0 -0 -0 -0 -1 -0 -0 -0 -0 -0 0 -0 0 -0 -0 -0 -0 -0 -1 -1 -0 0 -0 -2 -2 0 -0 -0 -0 0 -0 -0 0 0 0 nan
nan 0 -0 -0 -0 -0 -0 -0 -0 -0 -0 -0 -0 -0 0 -0 -0 -0 -0 -0 -0 -1 -0 -1 -0 -0 0 -0 -0 0 -0 -1 -1 -0 -0 0 0 0 -0 -0 -0 0 -0 -0 nan
nan nan nan nan nan nan nan nan nan nan nan nan nan nan nan nan nan nan nan nan nan nan nan nan nan nan nan nan nan nan nan nan nan nan nan nan nan nan nan nan nan nan nan nan nan
Wind_Speed
10 9 9 9 9 8 7 7 8 9 9 12 12 18 15 14 12 12 14 7 7 10 11 12 10 7 11 14 15 14 3 8 9 10 10 17 4 5 4 4 5 10 14 7 5
11 10 9 10 10 9 6 5 6 8 9 11 14 12 12 12 14 19 19 15 14 14 13 8 5 7 10 9 11 8 5 9 5 10 7 18 6 5 3 1 6 13 8 11 8
13 10 10 10 10 8 5 4 5 6 8 9 11 13 12 8 11 21 20 19 18 14 13 11 9 8 5 13 13 6 10 4 8 23 25 15 6 6 2 3 9 11 13 5 5
13 11 10 10 8 6 5 4 4 6 6 7 8 9 10 7 7 1 4 5 9 15 15 11 8 4 2 4 14 12 19 18 19 30 21 8 11 5 9 9 13 17 19 17 14
14 12 11 11 9 7 5 4 4 5 5 6 5 5 5 11 18 5 4 7 7 5 18 16 11 10 5 5 9 13 15 22 28 31 31 25 17 15 14 17 16 21 22 19 20
15 13 13 12 11 8 6 6 5 5 5 6 6 7 9 13 11 20 17 9 6 3 2 19 10 12 14 10 12 13 14 23 29 23 23 20 11 15 18 18 18 23 26 24 23
15 14 14 13 12 10 7 6 6 5 6 6 5 9 14 24 6 8 13 14 14 7 3 9 14 16 2 4 13 11 12 15 20 23 15 21 16 14 28 19 21 30 28 27 16
17 14 13 12 12 11 8 8 7 7 7 7 6 7 11 14 18 13 11 18 17 17 15 10 10 12 14 10 9 5 6 14 6 9 13 15 20 11 31 25 30 33 32 18 16
17 15 13 12 11 11 9 11 9 8 10 7 6 7 10 9 16 23 15 17 12 10 11 13 12 11 5 4 3 4 9 8 6 8 6 12 20 9 23 21 24 30 30 20 14
18 16 12 12 10 13 11 12 11 10 9 8 10 4 12 9 10 15 21 18 13 9 10 10 10 5 1 5 13 9 9 10 8 5 11 16 16 11 20 26 24 26 19 22 19
19 16 13 14 12 14 14 10 8 4 14 12 11 7 3 2 5 11 12 20 19 14 6 12 7 12 13 14 6 8 10 12 8 10 11 20 16 17 20 22 18 20 18 28 23
20 17 14 15 13 14 14 9 8 3 6 18 27 19 17 7 4 14 12 16 19 15 7 7 17 14 9 11 10 12 13 20 14 15 11 14 22 20 15 17 23 25 18 31 27
21 18 14 15 14 17 19 15 14 10 4 8 27 21 30 22 17 14 21 23 12 11 12 17 4 17 14 13 13 16 16 16 16 16 17 10 15 22 13 26 30 31 25 37 35
20 19 16 16 15 18 18 12 11 6 3 3 4 5 9 7 6 27 25 23 8 17 13 14 21 12 14 17 13 16 16 16 16 11 11 4 9 16 18 14 13 23 22 40 35
22 20 18 18 8 21 9 13 8 5 4 6 5 4 2 10 7 10 27 27 17 13 11 8 9 16 19 21 14 15 10 12 12 16 14 19 7 8 11 19 15 12 30 40 39
24 22 20 22 17 15 14 15 12 3 8 6 5 4 3 10 5 0 4 19 7 10 14 17 2 4 11 15 14 2 4 9 9 11 12 18 11 5 9 17 21 9 28 38 39
27 25 26 28 27 21 17 16 4 4 1 4 4 6 9 7 6 7 4 12 7 5 7 4 11 3 2 3 4 6 5 5 5 8 13 15 9 16 7 12 18 18 31 38 43
29 25 28 28 23 25 19 3 5 5 4 4 3 7 6 6 7 9 4 6 13 5 3 5 5 12 9 15 7 11 13 6 8 7 8 10 10 10 15 10 19 30 40 43 43
27 26 34 31 23 25 20 3 6 5 4 4 2 4 4 7 7 9 10 4 7 16 7 6 6 3 5 8 17 7 10 21 6 4 2 6 9 3 2 8 16 25 32 35 42
30 28 34 32 29 32 4 4 4 2 6 4 7 9 6 8 8 8 9 8 8 16 11 2 5 3 12 13 13 11 10 9 4 5 7 7 5 5 5 12 16 19 26 31 39
31 14 19 36 34 17 3 6 4 8 9 5 5 4 7 5 7 5 7 6 12 13 17 7 5 3 2 8 17 9 10 8 5 7 2 5 5 6 11 14 17 17 29 34 41
22 4 26 40 5 3 3 6 4 5 11 11 6 9 6 9 9 5 10 5 8 7 17 10 4 5 14 11 10 15 11 9 5 6 10 4 4 2 10 10 14 20 29 34 40
20 7 35 44 5 4 3 6 8 8 9 7 8 13 11 8 3 12 6 10 23 10 13 8 4 4 4 6 5 16 15 14 15 11 8 4 3 3 8 8 15 20 26 30 37
10 4 9 15 3 6 6 8 6 9 14 10 4 10 9 7 10 5 10 4 23 16 16 15 6 7 3 2 5 8 19 12 10 5 3 2 6 3 5 8 8 22 30 36 39
6 3 8 5 7 5 10 4 8 5 11 10 6 15 6 5 6 5 4 4 13 21 14 4 5 5 13 17 12 11 13 17 22 12 4 4 6 8 9 9 11 25 29 32 35
9 5 8 8 15 12 9 7 8 6 5 4 8 8 12 10 6 6 7 4 6 11 10 9 4 8 7 8 14 11 13 17 10 5 3 5 3 4 5 12 13 28 31 31 33
8 12 10 9 9 7 6 12 15 12 13 17 14 8 9 10 13 5 12 10 6 10 8 6 3 5 3 11 7 1 18 9 5 1 4 3 5 4 5 9 14 24 30 32 35
Wind_Direction
302 301 300 307 313 307 293 284 280 264 236 244 240 245 253 250 250 251 252 240 242 262 274 267 249 228 215 239 230 251 228 232 223 233 253 282 280 203 185 193 301 285 289 251 181
303 297 295 303 313 306 296 287 275 272 260 242 240 246 232 239 258 259 260 252 238 254 255 271 243 283 244 232 230 204 210 230 198 231 243 271 261 267 169 314 286 296 336 199 150
304 288 287 294 308 300 292 291 284 271 266 263 253 254 262 270 291 272 275 255 242 242 241 252 242 296 277 238 229 243 236 253 238 254 266 275 269 217 319 281 273 277 301 294 254
300 290 279 279 290 282 291 303 299 286 272 260 264 256 247 229 238 141 266 263 239 234 240 244 240 261 266 251 243 254 250 244 257 268 270 271 273 251 225 246 285 292 289 297 279
285 283 278 268 274 268 272 282 295 282 276 259 239 258 209 218 229 184 86 102 96 197 220 226 235 247 234 256 280 249 247 247 239 244 258 263 255 250 259 262 267 277 274 275 280
283 275 280 264 259 264 267 281 288 293 279 270 238 236 217 246 262 231 229 252 114 17 228 210 214 232 277 244 253 287 268 257 250 248 259 258 247 241 244 252 262 264 264 269 277
289 273 274 269 250 251 257 278 292 296 284 269 258 247 245 240 202 204 240 221 219 219 270 232 229 247 284 300 286 281 273 268 254 248 245 266 262 237 251 251 255 258 262 273 243
276 279 268 262 249 243 249 268 263 279 277 258 259 243 249 257 237 228 193 223 235 238 240 224 250 285 237 268 318 294 272 248 260 251 254 240 258 246 251 250 248 253 260 231 215
262 272 268 256 252 228 242 254 267 283 265 277 252 226 261 288 233 215 204 217 227 229 242 255 251 249 258 212 258 255 265 270 283 246 253 235 252 243 249 245 255 265 241 203 204
261 262 259 247 251 222 231 244 256 269 268 250 215 247 255 242 246 220 215 219 206 213 211 228 222 207 149 203 229 235 233 247 243 228 239 260 260 242 242 240 243 254 211 191 195
251 248 250 236 244 218 223 230 264 266 218 208 203 212 248 254 187 227 209 207 217 242 225 223 213 214 216 227 225 269 278 271 273 241 221 234 246 252 243 242 246 238 226 176 181
246 241 243 226 229 209 218 204 207 207 275 240 243 241 235 148 270 222 196 193 207 214 204 252 240 216 220 227 235 244 265 267 286 270 246 241 240 241 226 238 238 239 230 175 163
234 228 228 219 212 205 216 209 241 270 266 226 234 244 240 237 234 224 191 203 200 203 205 219 180 202 209 222 223 230 230 251 261 293 294 260 262 249 242 223 230 235 241 182 179
230 222 211 203 205 207 218 221 245 282 275 199 222 262 223 214 258 216 212 192 217 205 207 240 238 244 215 234 215 240 231 248 257 275 260 225 259 251 226 219 217 224 197 181 176
225 217 211 200 189 186 195 195 218 159 300 149 164 197 338 182 137 214 209 213 214 197 184 207 173 205 223 229 209 252 243 263 253 262 272 265 253 260 208 228 222 215 177 180 177
220 216 208 176 177 176 163 143 148 105 249 162 147 184 181 199 244 177 247 217 219 239 232 233 129 206 228 230 220 253 310 304 284 277 248 239 251 228 212 213 222 179 173 168 169
215 213 210 191 191 171 168 146 92 201 168 171 200 191 207 201 219 199 203 203 202 196 203 167 241 250 156 171 223 172 214 235 219 226 234 195 205 259 237 220 200 170 169 165 167
209 210 207 198 196 187 162 94 187 204 214 120 166 209 214 192 221 217 201 227 204 224 114 181 276 188 185 210 190 190 184 220 205 217 224 201 198 234 241 209 166 159 158 159 162
193 199 200 194 182 179 156 184 205 206 114 152 139 221 199 213 223 219 222 233 212 201 178 180 239 145 189 183 195 186 203 217 310 258 214 186 237 265 137 101 131 141 149 155 162
190 187 192 197 180 168 165 207 225 139 126 138 216 196 220 199 196 198 186 196 212 205 202 166 275 182 253 207 223 224 157 185 196 241 207 213 197 194 191 150 146 150 154 157 164
187 173 195 188 174 162 197 196 212 195 142 182 215 220 244 176 194 207 217 242 199 195 197 180 225 164 103 228 188 185 192 193 215 234 242 160 250 205 175 165 156 161 162 163 169
175 146 179 176 158 184 186 183 163 191 196 214 242 241 250 191 192 250 214 224 122 146 188 195 231 228 240 235 237 182 198 177 213 177 228 148 270 341 159 154 151 164 168 168 173
143 117 178 172 178 174 181 217 219 208 201 200 222 218 202 189 205 219 199 243 141 145 169 170 233 277 213 167 193 181 185 206 199 277 271 122 217 348 111 137 158 154 159 162 172
135 139 154 192 159 179 196 222 217 209 240 230 239 265 247 271 201 242 217 159 160 161 176 170 227 232 283 3 164 201 190 170 209 242 233 102 128 106 126 145 145 153 162 168 175
143 138 164 157 209 197 190 212 204 209 213 218 230 225 228 241 201 214 203 182 177 179 169 174 261 237 256 246 239 168 188 201 222 242 74 177 131 189 181 176 164 159 157 160 169
134 143 161 166 198 210 212 196 229 189 222 198 230 200 226 236 214 200 185 179 179 161 155 202 266 298 348 149 177 201 206 203 221 217 141 122 342 202 148 140 144 158 161 167 173
154 142 142 159 176 177 203 215 226 223 210 229 236 248 274 254 263 26 221 195 206 169 173 172 266 327 353 169 164 158 212 204 215 123 150 121 220 120 146 163 167 164 166 170 179
Height
1492 1492 1492 1492 1491 1491 1490 1490 1491 1493 1495 1496 1496 1498 1499 1500 1501 1501 1501 1504 1504 1504 1505 1507 1508 1509 1510 1511 1513 1513 1518 1514 1512 1512 1503 1496 1499 1495 1495 1497 1498 1499 1498 1500 1499
1489 1489 1490 1490 1489 1489 1488 1489 1490 1491 1492 1493 1494 1496 1496 1497 1498 1497 1499 1499 1501 1502 1504 1505 1505 1506 1508 1508 1509 1508 1510 1504 1501 1502 1501 1496 1498 1495 1494 1495 1497 1497 1497 1497 1499
1488 1487 1488 1487 1487 1488 1487 1487 1488 1489 1489 1490 1491 1493 1494 1496 1497 1489 1492 1493 1496 1499 1502 1504 1504 1505 1505 1505 1504 1500 1499 1499 1497 1498 1497 1496 1494 1493 1493 1494 1495 1496 1495 1498 1498
1485 1485 1485 1486 1485 1486 1486 1486 1486 1487 1487 1488 1488 1490 1492 1496 1498 1488 1489 1489 1491 1496 1499 1501 1503 1504 1503 1502 1500 1501 1496 1497 1497 1495 1494 1493 1491 1488 1489 1490 1492 1493 1492 1493 1493
1482 1483 1483 1483 1484 1484 1485 1485 1485 1485 1485 1486 1486 1489 1491 1493 1487 1488 1489 1489 1490 1492 1495 1499 1501 1501 1502 1498 1498 1494 1494 1492 1490 1489 1487 1489 1488 1486 1483 1485 1488 1489 1489 1488 1487
1479 1480 1480 1480 1480 1482 1482 1483 1483 1484 1484 1485 1485 1487 1489 1488 1484 1486 1487 1489 1490 1491 1492 1495 1496 1498 1497 1496 1496 1490 1488 1485 1483 1483 1483 1484 1482 1483 1480 1483 1485 1485 1484 1484 1484
1476 1476 1476 1477 1477 1479 1480 1481 1481 1482 1483 1483 1484 1484 1485 1479 1481 1483 1485 1486 1488 1489 1491 1492 1494 1497 1493 1491 1489 1488 1485 1479 1476 1478 1479 1483 1478 1474 1476 1479 1480 1479 1479 1479 1480
1472 1472 1472 1473 1474 1476 1477 1479 1479 1480 1481 1482 1482 1482 1478 1474 1478 1479 1481 1483 1486 1487 1489 1490 1492 1491 1491 1490 1487 1487 1481 1482 1476 1477 1475 1481 1475 1471 1472 1474 1473 1473 1473 1474 1475
1467 1468 1468 1469 1471 1473 1474 1476 1477 1478 1479 1480 1481 1481 1474 1471 1471 1475 1479 1481 1483 1485 1487 1487 1490 1489 1488 1489 1492 1491 1488 1485 1480 1474 1475 1472 1469 1467 1469 1469 1467 1466 1466 1469 1469
1463 1463 1464 1466 1467 1469 1471 1473 1474 1476 1477 1478 1478 1483 1470 1468 1469 1471 1476 1479 1482 1484 1485 1486 1485 1485 1487 1488 1487 1490 1486 1483 1480 1470 1473 1472 1465 1462 1462 1462 1462 1461 1461 1464 1464
1457 1458 1460 1461 1463 1465 1469 1471 1475 1474 1472 1469 1468 1466 1464 1465 1468 1469 1473 1477 1481 1482 1482 1480 1482 1481 1487 1483 1484 1485 1484 1480 1471 1469 1468 1463 1463 1457 1457 1456 1456 1455 1456 1458 1461
1452 1453 1455 1457 1459 1461 1465 1465 1467 1468 1466 1465 1464 1463 1462 1463 1467 1468 1471 1475 1477 1478 1481 1482 1471 1477 1480 1483 1484 1485 1486 1477 1472 1468 1466 1460 1455 1449 1450 1449 1448 1449 1451 1455 1457
1446 1448 1450 1453 1456 1457 1459 1460 1464 1466 1465 1458 1455 1455 1458 1461 1461 1463 1467 1469 1471 1476 1476 1472 1466 1468 1474 1478 1480 1479 1480 1477 1477 1469 1463 1462 1455 1446 1440 1441 1441 1441 1444 1448 1448
1441 1443 1444 1448 1455 1453 1454 1457 1462 1463 1463 1454 1454 1452 1453 1456 1456 1457 1460 1464 1467 1468 1471 1468 1467 1469 1472 1471 1474 1476 1469 1473 1474 1478 1471 1456 1454 1439 1434 1433 1433 1433 1438 1441 1445
1434 1437 1439 1443 1446 1447 1450 1452 1460 1462 1464 1452 1451 1451 1451 1454 1453 1452 1456 1459 1457 1459 1464 1458 1458 1463 1466 1458 1471 1465 1469 1468 1470 1471 1470 1459 1457 1433 1426 1427 1426 1425 1430 1433 1439
1428 1432 1435 1440 1442 1446 1448 1450 1459 1463 1462 1446 1448 1450 1451 1451 1450 1450 1453 1456 1454 1456 1455 1455 1455 1457 1455 1459 1463 1464 1469 1469 1470 1471 1466 1456 1459 1434 1424 1416 1412 1418 1426 1428 1435
1420 1425 1429 1432 1435 1441 1445 1450 1461 1456 1439 1443 1445 1446 1446 1446 1448 1449 1451 1450 1449 1452 1451 1452 1455 1455 1455 1459 1459 1466 1474 1473 1471 1470 1447 1438 1460 1437 1405 1400 1397 1407 1416 1423 1430
1414 1419 1421 1426 1430 1438 1442 1450 1454 1433 1434 1438 1442 1443 1443 1442 1442 1443 1446 1445 1444 1450 1448 1455 1463 1449 1447 1451 1453 1457 1464 1464 1462 1445 1433 1434 1435 1415 1394 1387 1388 1398 1407 1418 1427
1407 1413 1414 1421 1427 1433 1439 1444 1438 1428 1429 1437 1441 1439 1439 1440 1442 1440 1440 1438 1436 1442 1449 1449 1444 1434 1436 1438 1446 1447 1457 1448 1453 1434 1442 1427 1418 1399 1393 1391 1394 1403 1410 1417 1423
1396 1405 1408 1415 1423 1429 1435 1431 1428 1425 1430 1434 1433 1435 1432 1433 1439 1437 1435 1426 1429 1427 1433 1437 1439 1429 1435 1441 1440 1438 1437 1458 1455 1437 1432 1419 1409 1403 1398 1396 1397 1403 1409 1416 1422
1393 1402 1404 1410 1419 1425 1425 1426 1423 1424 1428 1434 1430 1430 1431 1431 1434 1432 1424 1415 1418 1420 1427 1432 1439 1433 1438 1424 1419 1432 1429 1437 1442 1436 1420 1422 1409 1385 1387 1389 1395 1401 1406 1411 1418
1388 1396 1402 1407 1417 1419 1419 1419 1419 1422 1425 1426 1429 1427 1424 1419 1425 1422 1415 1410 1411 1415 1420 1429 1429 1422 1416 1411 1409 1416 1421 1423 1431 1422 1421 1403 1406 1379 1382 1386 1391 1399 1404 1411 1417
1383 1395 1400 1404 1408 1411 1414 1415 1416 1419 1418 1419 1420 1418 1411 1409 1417 1409 1408 1401 1408 1416 1422 1427 1422 1415 1403 1404 1397 1406 1409 1407 1409 1419 1399 1401 1404 1384 1384 1388 1391 1397 1405 1411 1417
1381 1389 1397 1401 1401 1406 1410 1410 1412 1413 1413 1413 1410 1410 1409 1406 1401 1399 1401 1401 1404 1411 1418 1424 1414 1405 1392 1388 1385 1387 1395 1407 1416 1413 1391 1392 1394 1390 1389 1390 1394 1398 1404 1409 1415
1375 1381 1386 1393 1400 1401 1404 1404 1405 1408 1408 1406 1405 1405 1401 1401 1397 1398 1394 1397 1404 1407 1415 1420 1407 1402 1397 1390 1386 1384 1387 1403 1415 1394 1384 1390 1389 1391 1390 1390 1391 1395 1403 1409 1415
1370 1375 1385 1389 1395 1400 1400 1398 1398 1401 1403 1396 1398 1393 1396 1398 1392 1392 1392 1393 1396 1407 1412 1412 1401 1391 1379 1376 1380 1384 1384 1390 1391 1383 1381 1388 1386 1382 1385 1389 1393 1395 1400 1406 1412
1369 1374 1377 1382 1388 1393 1392 1390 1387 1392 1393 1393 1394 1393 1392 1389 1389 1387 1384 1386 1385 1392 1397 1401 1398 1392 1387 1381 1384 1390 1381 1385 1382 1378 1379 1390 1386 1382 1389 1389 1391 1395 1399 1404 1410